Regional Weather Roundup
Issued by NWS

Current Version | Previous Version | Text Only | Print | Product List | Glossary Off
Versions: 1 2 3 4 5 6 7 8 9 10 11 12 13 14 15 16 17 18 19 20 21 22 23 24 25 26 27 28 29 30 31 32 33 34 35 36 37 38 39 40 41 42 43 44 45 46 47 48 49 50

000
ASUS43 KLMK 230910
RWRKY
KENTUCKY REGIONAL WEATHER ROUNDUP
NATIONAL WEATHER SERVICE LOUISVILLE KY
500 AM EDT TUE MAY 23 2017

NOTE "FAIR" INDICATES FEW OR NO CLOUDS BELOW 12,000 FEET
WITH NO SIGNIFICANT WEATHER AND/OR OBSTRUCTIONS TO VISIBILITY.

KYZ001>023-026-027-061>063-070>075-231000-
WESTERN AND SOUTH CENTRAL KENTUCKY

CITY           SKY/WX    TMP DP  RH WIND       PRES   REMARKS
PADUCAH        CLOUDY    56  53  90 SE3       29.83F
HENDERSON      CLOUDY    58  54  86 CALM      29.86F
OWENSBORO      CLOUDY    60  51  72 E3        29.87F
HOPKINSVILLE   CLOUDY    62  55  77 E6        29.84F
BOWLING GREEN  CLOUDY    60  56  86 E3        29.87F
GLASGOW        CLOUDY    59  53  81 NE3       29.86F
$$

KYZ024-025-028>034-038-045-046-053-231000-
NORTH CENTRAL KENTUCKY

CITY           SKY/WX    TMP DP  RH WIND       PRES   REMARKS
LOUISVILLE/SDF CLOUDY    59  52  77 CALM      29.88F
LOUISVILLE/LOU PTCLDY    56  53  90 CALM      29.89F
FORT KNOX      CLOUDY    55  51  86 CALM      29.87F
$$

KYZ035>037-039>044-047>052-055>060-089>105-231000-
NORTHEAST KENTUCKY

CITY           SKY/WX    TMP DP  RH WIND       PRES   REMARKS
LEXINGTON      CLOUDY    58  50  75 CALM      29.90S
COVINGTON      CLOUDY    54  47  77 CALM      29.90F
FRANKFORT      CLOUDY    56  51  84 CALM      29.89S
$$

KYZ054-064>069-076>088-106>120-231000-
SOUTHEAST KENTUCKY

CITY           SKY/WX    TMP DP  RH WIND       PRES   REMARKS
JACKSON        CLOUDY    56  50  80 CALM      29.89F
LONDON         CLOUDY    57  52  83 NE3       29.88F
SOMERSET       CLOUDY    55  50  82 CALM      29.89F
MIDDLESBORO    CLOUDY    58  58  98 CALM      29.90S
MONTICELLO     CLOUDY    58  55  90 W6        29.89F
$$





USA.gov is the U.S. government's official web portal to all federal, state and local government web resources and services.